Погода в Дальнереченске

Погода в Дальнереченске : погода сейчас, прогноз погоды и архив. Всё, что Вы хотите узнать о погоде в Дальнереченске!

Хотите узнать прогноз погоды в Дальнереченске? Тогда Вам сюда: Погода в Дальнереченске

Поиск расширенной информации на нашем сайте:

Другие новости

Новости СМИ2

Главная страница сайта

Новости сайта

03.07.2017

Напоминаем, что на нашем специализированном сайте Метеоцентр.Азия вы можете получить высокодетализированные автоматические прогнозы погоды по пунктам России, СНГ и мира в авиационном формате (включающие направление и скорость ветра, видимость, явления погоды, количество и форму облачности, нижнюю и верхнюю границу облачности).

Рекомендуем: http://vibromash.com/ трос сантехнический для прочистки канализации купить.

Погода в Дальнереченске - сегодня

Время (UTC), дата Ветер
(°,м/с) 
Видим.   Явления Облачность Т
(°С)
Тd
(°С)
f(%) Тe
(°С)
Pmin
(гПа)
dP
(гПа)
Po
(мм)
O2
(г/м3)
Тmin Tmax R s Состояние
почвы
00 20.04.18 190 (Ю) 10 км    3/0 верхняя 
[Ci fib]
+13.9 +7.1 64 +14  1015.6  -0.3  753  287           
03 20.04.18 210 (ЮЗ) 6{10}  10 км    5/0 верхняя 
[Cs]
+18.6 +7.7 49 +19  1013.6  -1.7  751  282           
15 20.04.18 310 (СЗ) 10 км  слаб. дождь  ясно 
+11 +8.8 86 +12  1005.7  -2.7  745  287           
21 20.04.18 230 (ЮЗ) 4{10}  10 км    10/0 средняя 
[Ac As]
+8.3 +4.4 76 +7  1005.6  1.3  745  291  +8.3    0.6    влажная 
03 21.04.18 290 (З) 4{11}  10 км    10/8 600 м средняя 
[Sc|Ac As]
+8.5 +4.1 74 +7  1012.8  3.9  750  293           
06 21.04.18 240 (ЮЗ) 10 км    10/0 средняя 
[Ac As]
+10.6 +2.3 56 +10  1014.3  1.5  752  291           
12 21.04.18 270 (З) 10 км    8/0 верхняя 
[Ci fib]
+7 -2.4 51 +7  1019.7  3.3  755  297           
15 21.04.18 280 (З) 10 км    ясно 
+5.8 -6.7 40 +6  1021.3  1.6  757  299           
18 21.04.18 270 (З) 10 км    ясно 
+1.8 -5.8 57 +1  1023.2  1.7  758  304           
00 22.04.18 270 (З) 20000 м    3/0 верхняя 
[Ci fib]
+9.1 -5.5 35 +9  1026.2  1.7  760  297           
06 22.04.18 290 (З) 4{11}  20000 м    3/0 верхняя 
[Ci fib]
+14.5 -8.7 19 +14  1024.3  -1.3  759  291           
12 22.04.18 280 (З) 10 км    ясно 
+9.2 -6.1 33 +9  1025.8  760  297           
15 22.04.18 260 (З) 10 км    ясно 
+6.3 -6.5 39 +7  1026.6  0.6  761  300           
18 22.04.18 240 (ЮЗ) 10 км    ясно 
+3.2 -5 55 +3  1026.5  -0.2  760  303           
00 23.04.18 210 (ЮЗ) 20000 м    3/0 верхняя 
[Ci fib]
+11.6 -5.8 29 +11  1027.1  0.3  761  295           
03 23.04.18 240 (ЮЗ) 20000 м    5/0 верхняя 
[Ci fib]
+15.8 -8.4 18 +16  1025.2  -1.7  760  290           
06 23.04.18 250 (З) 20000 м    10/0 верхняя 
[Cs]
+16.5 -5.4 22 +17  1022.1  -2.9  758  288           
12 23.04.18 260 (З) 10 км    ясно 
+10.6 -5.3 32 +12  1021.1  -0.1  757  294           
15 23.04.18 280 (З) 10 км    ясно 
+8.7 -3.9 41 +10  1021  -0.2  756  296           
18 23.04.18 250 (З) 10 км    ясно 
+6.4 -3.8 48 +6  1020.4  -0.7  756  298           
00 24.04.18 130 (ЮВ) 20000 м    8/0 верхняя 
[Ci fib]
+11.7 -3.9 33 +13  1019.6  -0.2  756  292           
03 24.04.18 010 (С) 20000 м    10/0 верхняя 
[Cs]
+16.5 -6.8 20 +18  1017.1  -2.3  754  287           
06 24.04.18 150 (ЮВ) 20000 м    10/0 верхняя 
[Cs]
+20 -7.2 15 +20  1014  -2.9  752  283           
12 24.04.18 тихо ()   10 км    3/0 верхняя 
[Ci fib]
+12.5 -3.9 32 +13  1013.6  0.4  751  290           
15 24.04.18 тихо ()   10 км    ясно 
+10 -3.9 37 +10  1013.4  -0.3  751  292           
Время (UTC), дата Ветер
(°,м/с) 
Видим.   Явления Облачность Т
(°С)
Тd
(°С)
f(%) Тe
(°С)
Pmin
(гПа)
dP
(гПа)
Po
(мм)
O2
(г/м3)
Тmin Tmax R s Состояние
почвы

Для получения пояснительной информации подведите курсор к названию столбца.

ПОГОДА в Дальнереченске - архив

Всё, что Вы хотите узнать о погоде в Дальнереченске - удобно и подробно!

Выберите нужную дату (начиная с 1 января 2015* года) и нажмите кнопку "Найти".
Будут отображены архивные сводки погоды по пункту Дальнереченск, начиная с указанной даты.


Отображать данные в формате CSV (для использования в таблицах Excel)


Внимание! Наш архив погоды предназначен исключительно для личного некоммерческого использования в познавательных целях. Если Вам необходимы официальные справки о состоянии погоды (для производственных, юридических, коммерческих и т.п. целей), обращайтесь в органы Росгидромета.

*Примечание: данная дата относится к архиву по метеостанциям СССР (Россия, СНГ, Балтия).
Архив по метеостанциям Зарубежной Европы и Азии (кроме Китая) хранится 10 дней, по другим регионам земного шара (Китай, Африка, Америка, Австралия, Океания) - 1 день.

Дальнереченск - район местоположения метеостанции


Название, широта, долгота, высота метеостанции:
Дальнереченск 45.9°ш. 133.7°д. 101 м над ур. моря [Российская Федерация]

Дополнительная информация

В oтличие oт бoльшинства пoгoдных сайтoв мы публикуем пoдрoбную метеoинфoрмацию в детальнoм прoфессиoнальнoм фoрмате.

Характеристики температуры и влажнoсти вoздуха измеряются на высoте 2 м в тени вдали oт зданий и деревьев.
Скoрoсть ветра измеряется на высoте 10 м (на урoвне рoста челoвека скoрoсть ветра ниже в 1.5-2 раза). Если метеoстанция нахoдится в гoрoде или в лесу, тo скoрoсть ветра занижена на 2-4 м/с пo сравнению с oткрытым местoм. Скoрoсть ветра над акватoриями крупных рек и oзёр, а также на вершинах хoлмoв на 2-5 м/с выше, чем в oбычных услoвиях.
Атмoсфернoе давление в разных тoчках местнoсти мoжет значительнo oтличаться oт давления на метеoстанции, в зависимoсти oт услoвий рельефа (при пoдъёме на 10 м давление пoнижается примернo на 1 мм рт.ст.).